Regional Weather Roundup
Issued by NWS Newport/Morehead, NC

Current Version | Previous Version | Text Only | Print | Product List | Glossary Off
Versions: 1 2 3 4 5 6 7 8 9 10 11 12 13 14 15 16 17 18 19 20 21 22 23 24 25 26 27 28 29 30 31 32 33 34 35 36 37 38 39 40 41 42 43 44 45 46 47 48 49 50

856
ASUS42 KMHX 221225
RWRMHX
WEATHER ROUNDUP FOR EASTERN NORTH CAROLINA
NATIONAL WEATHER SERVICE NEWPORT/MOREHEAD CITY NC
800 AM EDT FRI JUN 22 2018

NOTE: "FAIR" INDICATES FEW OR NO CLOUDS BELOW 12,000 FEET
WITH NO SIGNIFICANT WEATHER AND/OR OBSTRUCTIONS TO VISIBILITY

NCZ015>017-031-032-045>047-102-103-221300-
NORTH COAST

CITY           SKY/WX    TMP DP  RH WIND       PRES   REMARKS
EDENTON        FAIR      78  76  92 S6        29.83R
ELIZABETH CITY FAIR      78  76  93 S6        29.82R
KITTY HAWK     FAIR      76  75  97 CALM      29.82R
MANTEO         FAIR      77  72  86 CALM      29.84R

$$

NCZ045>047-081-094-103-104-221300-
CENTRAL COAST

CITY           SKY/WX    TMP DP  RH WIND       PRES   REMARKS
FRISCO         FAIR      80  76  87 SE5       29.84R

$$

NCZ095-097-098-100-101-221300-
SOUTHERN COAST

CITY           SKY/WX    TMP DP  RH WIND       PRES   REMARKS
BEAUFORT       FAIR      82  81  96 S8        29.82S
CEDAR ISLAND   NOT AVBL
JACKSONVILLE   FAIR      80  77  90 S5        29.83R
PINEY ISLAND   NOT AVBL
WILMINGTON     FAIR      83  73  72 SW9       29.83R


$$

NCZ011>013-027>030-043-044-078>080-089-090>093-098-221300-
COASTAL PLAIN

CITY           SKY/WX    TMP DP  RH WIND       PRES   REMARKS
AHOSKIE        CLOUDY    75  74  99 MISG      29.82R
CLINTON        FAIR      78  74  87 SW3       29.83R
ELIZABETHTOWN  FAIR      79  72  80 SW7       29.84R
GOLDSBORO      FAIR      81  74  78 SW9       29.79R
GREENVILLE     FAIR      79  75  89 SW6       29.84R
HAVELOCK       FAIR      80  80 100 S8        29.83R
KENANSVILLE    FAIR      79  73  83 SW7       29.81S
KINSTON        SUNNY     79  75  89 S5        29.82R
NEW BERN       FAIR      77  76  96 S5        29.83R
RICHLANDS      FAIR      80  76  87 S7        29.83R
ROCKY MOUNT    FAIR      77  75  93 SW6       29.82R
WASHINGTON     FAIR      79  75  87 S3        29.82R
WHITEVILLE     FAIR      80  73  80 SW3       29.84R

$$

AMZ130-135-150-152-154-156-158-170-250-252-270-ANZ085-086-088-633-658-670-221300-
MARINE OBSERVATIONS

STATION/POSITION TIME  TEMP    WIND        PRES    WAVE   SWELL
                       AIR SEA DIR/SP/G            HT/PER HT/PER
                 (UTC) (F)     (DEG/KT/KT) (MB)    (FT/S) (FT/S)
CHESAPEAKE LIGHT NOT AVBL
64 E VA BEACH    1150   74 76   80/ 14/ 17 1010.6    3/ 6   2/ 8
DUCK             1200          100/ 11/ 12 1009.7
2 E DUCK         1200      81                N/A     2/ 5
OREGON INLET     1154          170/  2/  3 1010.2
13E OREGON INLT  1148      79                N/A     2/ 5   2/ 5
HATTERAS CG      1200   80 82  160/  6/  9 1010.1
DIAMOND BUOY     1210   81 81  180/  8/ 10 1011.1
CAPE LOOKOUT     1200          220/  5/  7 1010.2
BEAUFORT LAB     1148   83 84  170/  6/  9 1010.1
30 SE NEW RVR IN 1208   82 82  230/  6/  8 1010.5
30 SE NEW RVR IN 1200      82                N/A     3/ 5
27 SE WRIGHTSVLE 1208   82 82  250/  8/ 12 1010.7
5 SE WRIGHTSVLE  1208   80 79  180/  6/  8 1009.8
225 S CAPE HAT   1210      81  190/ 10/ 12 1013.7
41 SE CHARLESTON 1200          280/ 10/ 12 1011.5

$$




USA.gov is the U.S. government's official web portal to all federal, state and local government web resources and services.